Weather Roundup
Issued by NWS

Home | Current Version | Previous Version | Text Only | Print | Product List | Glossary On
Versions: 1 2 3 4 5 6 7 8 9 10 11 12 13 14 15 16 17 18 19 20 21 22 23 24 25 26 27 28 29 30 31 32 33 34 35 36 37 38 39 40 41 42 43 44 45 46 47 48 49 50
000
NZUS93 KARX 060910
HRRWXR

CURRENT HOURLY OBSERVATIONS ACROSS
MUCH OF THE UPPER MISSISSIPPI VALLEY
NATIONAL WEATHER SERVICE LA CROSSE WI
300 AM CST TUE DEC 06 2016


...SOUTHEAST MINNESOTA...


CITY           SKY/WX    TMP DP  RH WIND       PRES   REMARKS
ROCHESTER      LGT SNOW  33  32  96 SW13      29.75S FOG     WCI  24
ROCHESTER/MAYO CLOUDY    33  33 100 SW8       29.76R WCI  26
WINONA         LGT SNOW  34  32  93 CALM      29.78S
AUSTIN         LGT SNOW  32  30  93 W7        29.76S WCI  26
ALBERT LEA     CLOUDY    36  30  80 W8        29.76F WCI  29
DODGE CENTER   LGT SNOW  30  30 100 W13       29.74F WCI  20
PRESTON        LGT SNOW  32  30  94 S12       29.77S WCI  23
OWATONNA       MOCLDY    32  27  80 W10       29.75F WCI  24
FARIBAULT      CLOUDY    32  27  80 SW12      29.74F WCI  23
$$

...ELSEWHERE IN MINNESOTA...


CITY           SKY/WX    TMP DP  RH WIND       PRES   REMARKS
MINNEAPOLIS    CLOUDY    33  24  69 SW12      29.72R WCI  24
INTNL FALLS    CLOUDY    34  32  92 SE15G23   29.44S FOG     WCI  24
DULUTH         CLOUDY    36  33  89 S17       29.56S WCI  26
RED WING       MIX PCPN  36  34  93 W8        29.73S WCI  29
REDWOOD FALLS  CLOUDY    23  14  68 W20G28    29.76R WCI   8
MANKATO        MOCLDY    29  24  82 W20       29.76F WCI  16
WORTHINGTON    CLOUDY    19  14  81 W30G36    29.77S WCI   0
FAIRMONT       CLOUDY    27  20  75 W22G28    29.80R WCI  13
$$

...SOUTHWEST WISCONSIN...


CITY           SKY/WX    TMP DP  RH WIND       PRES   REMARKS
LA CROSSE      CLOUDY    36  31  82 S12       29.80R WCI  28
PRAIRIE DU CHI CLOUDY    32  29  86 S8        29.84S WCI  25
BOSCOBEL       CLOUDY    33  29  85 S7        29.85F WCI  27
LONE ROCK      CLOUDY    31  28  89 S9        29.85F WCI  23
PLATTEVILLE    CLOUDY    31  31 100 SE6       29.83F VSB 3/4 WCI  25
FORT MC COY    CLOUDY    33  30  91 S9        29.81S WCI  25
CAMP DOUGLAS   CLOUDY    32  28  86 S7        29.81S WCI  26
MAUSTON-NEW LI CLOUDY    32  29  88 S12       29.81S WCI  23
VIROQUA        CLOUDY    31  31  99 S9        29.80S WCI  23
WIS DELLS      CLOUDY    30  28  93 S12       29.82F FOG     WCI  21
$$

...ELSEWHERE IN WISCONSIN...


CITY           SKY/WX    TMP DP  RH WIND       PRES   REMARKS
MILWAUKEE      CLOUDY    37  33  85 W3        29.87F
MADISON        CLOUDY    30  30 100 MISG      29.84F FOG
GREEN BAY      CLOUDY    38  36  92 S8        29.86F WCI  32
EAU CLAIRE     LGT SNOW  33  32  96 S12       29.73S VSB 3/4 WCI  24
BLACK RVR FLS  CLOUDY    34  32  94 S7        29.79R WCI  28
MEDFORD        CLOUDY    30  28  94 S10       29.74S FOG     WCI  21
WAUSAU         CLOUDY    30  28  92 SE6       29.77F WCI  24
WIS RAPIDS     CLOUDY    31  30  96 SE7       29.80F WCI  24
MARSHFIELD     CLOUDY    31  28  89 S18       29.76S FOG     WCI  19
RICE LAKE      LGT SNOW  33  32  96 S10       29.70S WCI  25
$$

...NORTHEAST IOWA...


CITY           SKY/WX    TMP DP  RH WIND       PRES   REMARKS
WATERLOO       CLOUDY    33  32  96 S9        29.80S FOG     WCI  25
DUBUQUE        SNOW      31  31 100 S8        29.82F VSB 1/2 WCI  23
DECORAH        CLOUDY    32  32 100 S10G17    29.78F FOG     WCI  24
MASON CITY     CLOUDY    32  28  85 W13       29.80F WCI  22
CHARLES CITY   LGT SNOW  34  34 100 SW8       29.79R VSB 1   WCI  27
OELWEIN        CLOUDY    32  32 100 S12       29.80F FOG     WCI  23
$$

...ELSEWHERE IN IOWA...


CITY           SKY/WX    TMP DP  RH WIND       PRES   REMARKS
DES MOINES     FLURRIES  35  30  82 NW20G26   29.83R WCI  24
IOWA CITY      CLOUDY    35  32  88 SE3       29.84S
FORT DODGE     CLOUDY    30  23  74 W12G21    29.84R WCI  21
MARSHALLTOWN   LGT RAIN  36  35  96 W9        29.80R FOG     WCI  29
CEDAR RAPIDS   CLOUDY    33  33 100 SE5       29.80F WCI  29
$$

...NORTHERN ILLINOIS...


CITY           SKY/WX    TMP DP  RH WIND       PRES   REMARKS
CHICAGO-OHARE  MOCLDY    33  31  92 E3        29.85F FOG
CHICAGO-MIDWAY MOCLDY    32  28  85 SE3       29.86F FOG
MOLINE         CLOUDY    34  32  92 E5        29.84R FOG     WCI  30
ROCKFORD       FOG       33  33 100 SE6       29.87S VSB 1   WCI  28
PEORIA         FOG       32  32 100 E8        29.81F VSB 1/4 WCI  25
$$

NOTE: "FAIR" INDICATES FEW OR NO CLOUDS BELOW 12,000 FEET WITH NO
SIGNIFICANT WEATHER AND/OR OBSTRUCTIONS TO VISIBILITY. WIND
SPEEDS ARE IN MILES-PER-HOUR.




USA.gov is the U.S. government's official web portal to all federal, state and local government web resources and services.